Home > Time Zones > World Clock > Weather > Norway > Ås > Past weeks

Flag for Norway Weather past 2 weeks in Ås, Norway

Now
43 °F

Passing clouds.


Feels Like: 31 °F
Forecast: 40 / 46 °F
Wind: 36 mph from East

Location: Oslo / Fornebu

Current Time: May 3, 2015 at 12:49:28 PM

Latest Report: May 3, 2015 at 12:20 PM


Visibility: N/A

Pressure: 29.83 "Hg

Humidity: 71%

Dew point: 34 °F

Location of ÅsLocation

Historic Weather in Ås — Graph

°F

Ås temperature yesterday

Maximum temperature yesterday: 41 °F (at 10:20 PM)
Minimum temperature yesterday: 37 °F (at 3:20 AM)
Average temperature yesterday: 39 °F

Past Weeks' High & Low Weather Summary

 TemperatureHumidityPressure
High52 °F (Apr 18, 1:50 PM)100% (Apr 20, 5:50 AM)30.51 "Hg (Apr 20, 5:50 AM)
Low37 °F (Apr 24, 7:20 PM)42% (Apr 27, 1:20 PM)29.27 "Hg (Apr 25, 2:50 PM)
Average43 °F75%29.93 "Hg
* Reported Apr 18 11:20 AM — May 3 11:50 AM, Ås, Weather by CustomWeather, © 2015

Note: Actual official high and low records may vary slightly from our data, if they occured in-between our weather recording intervals... More about our weather records

Advertising

Ås weather history for previous 24 hours

 ConditionsComfort  
Time TempWeatherWind HumidityBarometerVisibility
11:50 AM
Sun, May 3
43 °FQuite cool.36 mph66%29.83 "HgN/A
11:20 AM43 °FPassing clouds.35 mph71%29.83 "HgN/A
10:50 AM43 °FScattered clouds.36 mph66%29.83 "HgN/A
10:20 AM43 °FPassing clouds.35 mph71%29.86 "HgN/A
9:50 AM43 °FPassing clouds.32 mph61%29.86 "HgN/A
9:20 AM43 °FPartly sunny.31 mph66%29.86 "HgN/A
8:50 AM43 °FPartly sunny.30 mph61%29.89 "HgN/A
8:20 AM43 °FPassing clouds.26 mph66%29.89 "HgN/A
7:50 AM41 °FPassing clouds.28 mph66%29.89 "HgN/A
7:20 AM41 °FScattered clouds.28 mph66%29.89 "HgN/A
6:50 AM41 °FScattered clouds.25 mph66%29.92 "HgN/A
6:20 AM41 °FPassing clouds.25 mph66%29.92 "HgN/A
5:50 AM41 °FPassing clouds.25 mph66%29.92 "HgN/A
5:20 AM41 °FPassing clouds.25 mph61%29.92 "HgN/A
4:20 AM41 °FPassing clouds.24 mph61%29.92 "HgN/A
3:50 AM41 °FPassing clouds.24 mph66%29.95 "HgN/A
3:20 AM41 °FPassing clouds.23 mph61%29.95 "HgN/A
2:50 AM41 °FPassing clouds.22 mph66%29.95 "HgN/A
2:20 AM41 °FPassing clouds.23 mph61%29.95 "HgN/A
1:50 AM41 °FPassing clouds.22 mph66%29.98 "HgN/A
1:20 AM39 °FPassing clouds.22 mph70%29.98 "HgN/A
12:50 AM39 °FPassing clouds.22 mph65%29.98 "HgN/A
12:20 AM41 °FPassing clouds.22 mph61%29.98 "HgN/A
11:50 PM
Sat, May 2
39 °FPassing clouds.21 mph65%29.98 "HgN/A
10:50 PM41 °FPassing clouds.22 mph61%29.98 "HgN/A
10:20 PM41 °FPassing clouds.23 mph66%29.98 "HgN/A
9:50 PM39 °FPartly sunny.21 mph65%29.98 "HgN/A
9:20 PM39 °FPartly sunny.21 mph65%29.98 "HgN/A
8:50 PM39 °FPartly sunny.20 mph65%29.98 "HgN/A
8:20 PM39 °FScattered clouds.20 mph61%29.98 "HgN/A
7:50 PM39 °FPartly sunny.18 mph61%29.98 "HgN/A
7:20 PM39 °FPartly sunny.17 mph65%30.01 "HgN/A
6:50 PM39 °FScattered clouds.18 mph61%30.01 "HgN/A
6:20 PM39 °FPassing clouds.17 mph61%30.01 "HgN/A
5:50 PM39 °FPassing clouds.18 mph61%30.01 "HgN/A
5:20 PM39 °FPassing clouds.16 mph61%30.01 "HgN/A
4:50 PM39 °FPartly sunny.18 mph61%30.01 "HgN/A
4:20 PM39 °FPartly sunny.16 mph61%30.01 "HgN/A
3:50 PM39 °FScattered clouds.18 mph61%30.01 "HgN/A
3:20 PM39 °FPartly sunny.17 mph56%30.01 "HgN/A
2:50 PM39 °FScattered clouds.17 mph56%30.01 "HgN/A
2:20 PM39 °FPartly sunny.18 mph56%30.01 "HgN/A
1:50 PM39 °FPartly sunny.18 mph61%30.01 "HgN/A
1:20 PM39 °FPartly sunny.17 mph56%30.01 "HgN/A
12:50 PM39 °FPartly sunny.20 mph61%30.01 "HgN/A
12:20 PM39 °FPartly sunny.21 mph65%30.01 "HgN/A
Weather by CustomWeather, © 2015

See weather overviewHow to use our weather pages